Torna al catalogo

COSMOS 2251 DEB

AttivoLEO
NORAD 34797·DEBRIS·🇷🇺 Russia

Lanciato Jun 16, 1993 da Plesetsk Cosmodrome

Loading…

Prossimi Passaggi (prossime 24 ore)

TLE

In scadenzaSource: Space-Track

Epoca: Sep 12, 2026, 09:52 UTC

1 34797U 93036ABA 26255.41149353  .00001056  00000-0  29972-3 0  9995
2 34797  73.9747 308.8840 0072131 355.7012   4.3516 14.45227118913666

Traccia COSMOS 2251 DEB in tempo reale con AllMySat

Download on the App Store